E1763 Weather Reports


time (UTC)temp
C
wind
direction
speed
KPH
gust
KPH
rain 1hr
cm
rain 24hr
cm
rain mn
cm
humidity
%
barometer
mb
20260905003056 19 341 0.0 0.0 0.00 0.08 0.00 67 1009.0
20260905001603 20 90 0.0 0.0 0.00 0.08 0.00 67 1009.0
20260905000112 19 260 0.0 0.0 0.00 0.08 0.00 68 1009.0
20260904234554 20 314 0.0 0.0 0.00 0.08 0.00 67 1008.9
20260904233053 20 214 0.0 0.0 0.00 0.08 0.00 66 1008.9
20260904231558 20 210 0.0 8.0 0.00 0.08 0.00 67 1009.0
20260904230053 20 252 0.0 0.0 0.00 0.08 0.00 62 1009.0
20260904224556 20 61 0.0 0.0 0.00 0.08 0.00 63 1008.9
20260904223055 20 39 0.0 0.0 0.00 0.08 0.00 64 1009.0
20260904221551 21 14 0.0 0.0 0.00 0.08 0.00 60 1009.1
20260904220110 21 246 0.0 0.0 0.00 0.08 0.00 60 1009.2
20260904214550 20 60 0.0 0.0 0.00 0.08 0.00 60 1009.2
20260904213050 21 304 0.0 0.0 0.00 0.08 0.00 55 1009.1
20260904211555 21 246 0.0 0.0 0.00 0.08 0.00 57 1009.2
20260904210057 21 79 1.6 6.4 0.00 0.08 0.00 63 1009.2
20260904204547 19 294 0.0 0.0 0.00 0.08 0.00 67 1009.3
20260904203044 19 331 0.0 0.0 0.00 0.08 0.00 68 1009.3
20260904201539 18 355 0.0 0.0 0.00 0.08 0.00 73 1009.3
20260904200040 20 303 0.0 0.0 0.00 0.08 0.00 69 1009.4
20260904194636 19 187 0.0 0.0 0.00 0.08 0.00 70 1009.5
20260904193039 19 344 0.0 11.3 0.00 0.08 0.00 73 1009.7
20260904191539 18 321 0.0 9.7 0.00 0.08 0.00 81 1009.8
20260904190029 17 331 0.0 0.0 0.00 0.08 0.00 87 1009.7
20260904184524 17 26 0.0 0.0 0.00 0.08 0.00 92 1009.6
20260904183021 16 108 0.0 0.0 0.00 0.08 0.00 96 1009.6
20260904181518 15 21 0.0 0.0 0.00 0.08 0.00 97 1009.6
20260904180016 15 163 0.0 0.0 0.00 0.08 0.00 97 1009.4
20260904174529 14 292 0.0 0.0 0.00 0.15 0.00 97 1009.4
20260904173013 14 195 0.0 0.0 0.00 0.15 0.00 97 1009.4
20260904171511 14 162 0.0 1.6 0.00 0.15 0.00 97 1009.3
20260904170010 13 264 0.0 0.0 0.00 0.15 0.00 97 1009.3
20260904164508 12 264 0.0 1.6 0.00 0.15 0.00 97 1009.2
20260904163006 12 71 0.0 0.0 0.00 0.15 0.00 97 1009.1
20260904161505 12 360 0.0 0.0 0.00 0.15 0.00 97 1009.0
20260904160005 12 101 0.0 0.0 0.00 0.15 0.00 97 1009.0
20260904154504 11 22 0.0 0.0 0.00 0.18 0.00 97 1009.0
20260904153004 11 47 0.0 0.0 0.00 0.18 0.00 97 1009.1
20260904151601 11 77 0.0 0.0 0.00 0.18 0.00 97 1008.8
20260904151501 11 77 0.0 0.0 0.00 0.18 0.00 97 1008.8
20260904150100 11 14 0.0 0.0 0.00 0.18 0.00 97 1008.6
20260904144557 11 9 0.0 0.0 0.00 0.18 0.00 97 1008.5
20260904143055 11 64 0.0 0.0 0.00 0.18 0.00 97 1008.2
20260904141556 11 62 0.0 0.0 0.00 0.18 0.00 97 1008.2
20260904140053 11 74 0.0 0.0 0.00 0.18 0.00 97 1008.1
20260904134550 11 32 0.0 0.0 0.00 0.30 0.00 97 1008.0
20260904133057 11 32 0.0 0.0 0.00 0.30 0.00 97 1007.8
20260904131546 11 32 0.0 0.0 0.00 0.30 0.00 97 1007.6
20260904130045 11 36 0.0 0.0 0.00 0.30 0.00 97 1007.5
20260904124548 11 15 0.0 0.0 0.00 0.48 0.00 97 1007.4
20260904123104 11 15 0.0 0.0 0.00 0.48 0.00 96 1007.2
20260904121539 11 71 0.0 0.0 0.00 0.48 0.00 97 1007.1
20260904120040 11 24 0.0 0.0 0.00 0.48 0.00 97 1007.1
20260904114537 11 25 0.0 0.0 0.00 0.64 0.00 96 1007.0
20260904113047 12 27 0.0 0.0 0.00 0.64 0.00 96 1007.1
20260904111532 12 65 0.0 0.0 0.00 0.64 0.00 96 1007.1
20260904110038 12 30 0.0 0.0 0.00 0.64 0.00 96 1007.0
20260904104529 12 17 0.0 0.0 0.00 0.84 0.00 96 1007.0
20260904103028 12 26 0.0 0.0 0.00 0.84 0.00 96 1007.0
20260904101526 12 74 0.0 0.0 0.00 0.84 0.00 96 1007.0
20260904100025 13 46 0.0 0.0 0.00 0.84 0.00 96 1007.0
20260904094522 13 52 0.0 0.0 0.00 0.97 0.00 96 1006.9
20260904093022 13 355 0.0 0.0 0.00 0.97 0.00 96 1006.9
20260904091523 13 355 0.0 0.0 0.00 0.97 0.00 96 1006.9
20260904090022 13 313 0.0 0.0 0.00 0.97 0.00 96 1006.9
20260904084522 13 49 0.0 0.0 0.00 1.09 0.00 96 1007.0
20260904083018 13 40 0.0 0.0 0.00 1.09 0.00 96 1007.1
20260904081517 13 57 0.0 0.0 0.00 1.09 0.00 96 1007.1
20260904080018 13 10 0.0 0.0 0.00 1.09 0.00 96 1007.1
20260904074516 13 10 0.0 0.0 0.00 1.22 0.00 96 1007.0
20260904073014 13 10 0.0 0.0 0.03 1.22 0.00 96 1007.0
20260904071513 13 10 0.0 0.0 0.03 1.22 0.00 96 1007.0
20260904070030 13 10 0.0 0.0 0.03 1.22 0.00 96 1006.9
20260904064508 13 10 0.0 0.0 0.03 1.30 1.22 96 1006.9
20260904063013 13 10 0.0 0.0 0.00 1.27 1.19 96 1006.9
20260904061506 13 10 0.0 0.0 0.00 1.27 1.19 96 1006.8
20260904060005 13 10 0.0 0.0 0.00 1.27 1.19 96 1006.8
20260904054503 13 10 0.0 0.0 0.00 1.30 1.19 96 1006.7
20260904053003 14 10 0.0 0.0 0.00 1.30 1.19 96 1006.9
20260904051604 14 10 0.0 0.0 0.00 1.30 1.19 96 1006.9
20260904050005 14 10 0.0 0.0 0.00 1.30 1.19 96 1007.0
20260904044500 14 10 0.0 0.0 0.03 1.30 1.19 95 1007.1
20260904043100 14 10 0.0 0.0 0.03 1.30 1.19 95 1007.2
20260904041559 14 321 0.0 0.0 0.03 1.30 1.19 95 1007.1
20260904040057 14 341 0.0 0.0 0.03 1.30 1.19 96 1006.9
20260904034600 15 290 0.0 0.0 0.00 1.27 1.17 96 1006.8
20260904033056 15 248 0.0 0.0 0.00 1.27 1.17 95 1006.8
20260904031555 15 247 0.0 0.0 0.00 1.27 1.17 95 1006.6
20260904030058 15 247 0.0 0.0 0.03 1.27 1.17 95 1006.5
20260904024552 15 213 0.0 0.0 0.03 1.27 1.17 95 1006.5
20260904023058 15 17 0.0 0.0 0.03 1.27 1.17 95 1006.6
20260904021554 15 17 0.0 0.0 0.03 1.27 1.17 95 1006.6
20260904020050 15 17 0.0 0.0 0.00 1.24 1.14 94 1006.6
20260904014549 15 17 0.0 0.0 0.00 1.24 1.14 95 1006.8
20260904013049 16 55 0.0 0.0 0.00 1.24 1.14 95 1006.9
20260904011606 16 55 0.0 0.0 0.00 1.24 1.14 95 1006.9
20260904010054 16 5 0.0 0.0 0.00 1.24 1.14 95 1006.9
20260904004546 15 5 0.0 0.0 0.00 1.24 1.14 94 1007.0